Date,TemperatureHighF,TemperatureAvgF,TemperatureLowF,DewpointHighF,DewpointAvgF,DewpointLowF,HumidityHigh,HumidityAvg,HumidityLow,PressureMaxIn,PressureMinIn,WindSpeedMaxMPH,WindSpeedAvgMPH,GustSpeedMaxMPH,PrecipitationSumIn
2013-3-1,46.0,40.6,34.0,33.4,29.9,26.7,82,66,56,29.71,29.58,6,3,0,0.00
2013-3-2,40.5,36.8,34.0,27.6,25.9,24.1,70,64,56,29.73,29.64,9,3,0,0.00
2013-3-3,45.3,35.7,27.0,24.7,22.9,19.4,84,61,43,29.74,29.61,8,2,0,0.00
2013-3-4,49.5,35.3,24.3,22.4,18.6,16.4,74,53,30,29.87,29.74,11,2,0,0.00
2013-3-5,49.5,38.2,27.3,38.9,27.8,19.8,98,69,40,29.91,29.52,5,2,0,0.44
2013-3-6,39.9,36.0,32.7,39.4,35.5,32.2,98,98,98,29.78,29.22,23,6,0,2.16
2013-3-7,50.7,41.3,32.9,38.0,32.7,29.5,98,73,50,29.99,29.78,12,4,0,0.00
2013-3-8,48.9,41.1,33.4,34.1,31.1,27.6,88,68,52,30.07,29.95,22,5,0,0.00
2013-3-9,61.3,46.0,35.2,34.0,30.7,26.6,82,59,27,30.16,30.06,9,2,0,0.00
2013-3-10,64.9,47.5,31.3,45.7,31.3,19.1,98,63,21,30.16,30.05,5,2,0,0.00
2013-3-11,69.3,53.8,39.9,58.2,49.5,39.4,98,87,61,30.07,29.77,6,2,0,0.00
2013-3-12,71.2,59.3,45.9,67.6,57.5,38.4,98,94,71,29.77,29.53,8,3,0,0.55
2013-3-13,54.3,43.8,33.4,39.6,32.5,19.2,98,68,38,29.91,29.74,9,3,0,0.00
2013-3-14,52.5,39.8,28.2,21.6,19.7,16.5,71,46,27,30.00,29.86,9,3,0,0.00
2013-3-15,60.8,45.5,28.9,38.4,27.8,18.9,75,51,31,29.95,29.64,9,2,0,0.00
2013-3-16,73.4,56.8,46.0,62.7,49.6,38.2,98,79,52,29.68,29.39,6,2,0,0.54
2013-3-17,50.4,39.9,35.8,49.9,39.4,35.3,98,98,98,30.10,29.68,6,3,0,0.16
2013-3-18,38.7,35.6,33.3,38.2,35.1,32.8,98,98,98,30.11,29.69,6,2,0,0.66
2013-3-19,68.0,47.7,35.4,48.5,30.8,4.5,98,65,15,29.78,29.56,9,3,0,0.00
2013-3-20,57.7,46.5,31.6,22.2,13.9,2.5,55,28,16,29.87,29.58,8,2,0,0.00
2013-3-21,46.6,37.2,28.8,33.4,21.4,11.7,98,55,31,29.75,29.53,9,4,0,0.00
2013-3-22,51.4,37.2,23.9,22.4,17.0,11.6,63,45,29,29.84,29.72,9,2,0,0.00
2013-3-23,57.6,43.1,27.3,31.7,26.0,20.9,98,55,28,29.88,29.73,8,2,0,0.00
2013-3-24,41.0,36.4,32.2,38.5,32.4,26.8,98,86,61,29.80,29.43,5,2,0,0.10
2013-3-25,39.2,35.1,32.2,38.7,34.6,31.7,98,98,98,29.53,29.33,6,1,0,0.80
2013-3-26,50.2,40.2,30.0,36.0,31.8,29.5,98,75,47,29.84,29.53,10,2,0,0.01
2013-3-27,52.7,42.3,32.9,32.9,29.3,25.5,98,62,40,29.98,29.84,9,3,0,0.00
2013-3-28,53.4,43.6,33.3,32.1,28.8,26.3,77,57,42,30.07,29.95,9,3,0,0.00
2013-3-29,59.9,46.9,37.4,35.0,31.5,27.9,81,57,35,30.11,29.97,8,2,0,0.00
2013-3-30,65.7,50.7,35.1,38.9,34.6,31.2,98,60,29,30.05,29.91,9,2,0,0.00
2013-3-31,59.0,50.3,45.7,58.4,47.5,34.5,98,91,62,29.94,29.57,5,1,0,0.44